Glens Falls, NY

5:15 PM EDT on August 20, 2017 (GMT -0400)
Bennett Memorial

Weather History for KGFL - August, 2014

Change the Weather History Date:

Sunday, August 17, 2014

  Actual Average Record
Temperature  
Mean Temperature 65 °F 67 °F  
Max Temperature 74 °F 79 °F 93 °F (1987)
Min Temperature 55 °F 55 °F 41 °F (1979)
Degree Days  
Heating Degree Days 0 1  
Month to date heating degree days 7 17  
Since 1 June heating degree days 40 128  
Since 1 July heating degree days 8 38  
Cooling Degree Days 0 3  
Month to date cooling degree days 51 67  
Year to date cooling degree days 304 287  
Since 1 June cooling degree days 284 275  
Growing Degree Days 14 (Base 50)    
Moisture  
Dew Point 55 °F    
Average Humidity 71    
Maximum Humidity 93    
Minimum Humidity 49    
Precipitation  
Precipitation 0.01 in 0.13 in 1.07 in (1974)
Month to date precipitation 0.83 2.18  
Year to date precipitation 24.04 24.31  
Sea Level Pressure  
Sea Level Pressure 29.84 in    
Wind  
Wind Speed 7 mph (SW)    
Max Wind Speed 17 mph    
Max Gust Speed 23 mph    
Visibility 10 miles    
Events Rain    
T = Trace of Precipitation, MM = Missing Value Source: NWS Daily Summary

Daily Weather History Graph

Daily Weather History Graph

Search for Another Location

Airport or City:

Trip Planner

Search our weather history database for the weather conditions in past years. The results will help you decide how hot, cold, wet, or windy it might be!

Date:

Astronomy

Aug. 17, 2014 Rise Set
Actual Time 6:01 AM EDT 7:54 PM EDT
Civil Twilight 5:31 AM EDT 8:24 PM EDT
Nautical Twilight 4:53 AM EDT 9:02 PM EDT
Astronomical Twilight 4:12 AM EDT 9:42 PM EDT
Moon No Moon Rise 1:58 PM EDT (8/17)
Length of Visible Light 14h 53m
Length of Day
13h 52m
Waning Gibbous, 48% of the Moon is Illuminated
Aug 17
Waning Gibbous
Aug 25
New
Sep 2
First Quarter
Sep 8
Full
Sep 15
Last Quarter

Hourly Weather History & Observations

Time (EDT) Temp. Dew Point Humidity Pressure Visibility Wind Dir Wind Speed Gust Speed Precip Events Conditions
12:53 AM 61.0 °F 57.0 °F 87% 29.85 in 10.0 mi South 5.8 mph - N/A   Scattered Clouds
1:53 AM 61.0 °F 57.0 °F 87% 29.84 in 10.0 mi South 3.5 mph - 0.00 in Rain Light Rain
2:53 AM 61.0 °F 55.9 °F 83% 29.82 in 10.0 mi South 6.9 mph - 0.00 in   Overcast
3:53 AM 61.0 °F 55.0 °F 81% 29.81 in 10.0 mi SSW 8.1 mph - 0.01 in   Overcast
4:53 AM 62.1 °F 55.0 °F 78% 29.81 in 10.0 mi South 8.1 mph - N/A   Overcast
5:53 AM 61.0 °F 55.9 °F 83% 29.82 in 10.0 mi SSW 5.8 mph - N/A   Overcast
6:24 AM 61.0 °F 55.9 °F 83% 29.82 in 10.0 mi SSW 8.1 mph - N/A   Overcast
6:43 AM 61.0 °F 55.9 °F 83% 29.83 in 10.0 mi South 5.8 mph - N/A   Overcast
6:53 AM 61.0 °F 55.9 °F 83% 29.83 in 10.0 mi SSW 5.8 mph - N/A   Overcast
7:19 AM 61.0 °F 55.9 °F 83% 29.83 in 10.0 mi South 5.8 mph - N/A   Overcast
7:53 AM 62.1 °F 57.0 °F 84% 29.83 in 10.0 mi SE 4.6 mph - N/A   Overcast
8:53 AM 63.0 °F 57.9 °F 84% 29.83 in 9.0 mi SSE 8.1 mph - N/A   Overcast
9:53 AM 64.9 °F 59.0 °F 81% 29.83 in 10.0 mi South 4.6 mph - N/A   Overcast
10:53 AM 66.9 °F 61.0 °F 81% 29.84 in 10.0 mi Calm Calm - 0.00 in   Mostly Cloudy
11:53 AM 71.1 °F 57.0 °F 61% 29.84 in 10.0 mi NNW 12.7 mph - N/A   Mostly Cloudy
12:53 PM 71.1 °F 53.1 °F 53% 29.84 in 10.0 mi NNW 11.5 mph - N/A   Scattered Clouds
1:53 PM 73.0 °F 53.1 °F 49% 29.84 in 10.0 mi NW 13.8 mph - N/A   Clear
2:53 PM 73.9 °F 53.1 °F 48% 29.84 in 10.0 mi NW 18.4 mph 23.0 mph N/A   Clear
3:53 PM 72.0 °F 52.0 °F 49% 29.85 in 10.0 mi NNW 13.8 mph - N/A   Mostly Cloudy
4:53 PM 72.0 °F 52.0 °F 49% 29.85 in 10.0 mi NNW 10.4 mph - N/A   Partly Cloudy
5:53 PM 72.0 °F 53.1 °F 51% 29.86 in 10.0 mi NNW 6.9 mph - N/A   Mostly Cloudy
6:53 PM 70.0 °F 53.1 °F 55% 29.86 in 10.0 mi NW 9.2 mph - N/A   Partly Cloudy
7:53 PM 64.9 °F 53.1 °F 65% 29.87 in 10.0 mi NW 4.6 mph - N/A   Clear
8:53 PM 62.1 °F 53.1 °F 72% 29.89 in 10.0 mi Calm Calm - N/A   Clear
9:53 PM 57.0 °F 52.0 °F 83% 29.89 in 10.0 mi Calm Calm - N/A   Clear
10:53 PM 55.9 °F 53.1 °F 90% 29.90 in 10.0 mi Calm Calm - N/A   Clear
11:53 PM 55.9 °F 53.1 °F 90% 29.89 in 10.0 mi Calm Calm - N/A   Scattered Clouds